Year,Month,Day,Hour,Minute,Value (Times are PST for temperature in C)
2010,08,12,00,00,18.60
2010,08,12,00,01,18.60
2010,08,12,00,02,18.60
2010,08,12,00,03,18.60
2010,08,12,00,04,18.60
2010,08,12,00,05,18.60
2010,08,12,00,06,18.60
2010,08,12,00,07,18.50
2010,08,12,00,08,18.50
2010,08,12,00,09,18.50
2010,08,12,00,10,18.50
2010,08,12,00,11,18.50
2010,08,12,00,12,18.40
2010,08,12,00,13,18.40
2010,08,12,00,14,18.40
2010,08,12,00,15,18.40
2010,08,12,00,16,18.40
2010,08,12,00,17,18.40
2010,08,12,00,18,18.40
2010,08,12,00,19,18.40
2010,08,12,00,20,18.40
2010,08,12,00,21,18.40
2010,08,12,00,22,18.40
2010,08,12,00,23,18.40
2010,08,12,00,24,18.30
2010,08,12,00,25,18.30
2010,08,12,00,26,18.30
2010,08,12,00,27,18.30
2010,08,12,00,28,18.30
2010,08,12,00,29,18.30
2010,08,12,00,30,18.30
2010,08,12,00,31,18.30
2010,08,12,00,32,18.30
2010,08,12,00,33,18.30
2010,08,12,00,34,18.30
2010,08,12,00,35,18.30
2010,08,12,00,36,18.30
2010,08,12,00,37,18.30
2010,08,12,00,38,18.30
2010,08,12,00,39,18.30
2010,08,12,00,40,18.30
2010,08,12,00,41,18.30
2010,08,12,00,42,18.30
2010,08,12,00,43,18.30
2010,08,12,00,44,18.30
2010,08,12,00,45,18.20
2010,08,12,00,46,18.20
2010,08,12,00,47,18.20
2010,08,12,00,48,18.20
2010,08,12,00,49,18.20
2010,08,12,00,50,18.20
2010,08,12,00,51,18.20
2010,08,12,00,52,18.20
2010,08,12,00,53,18.20
2010,08,12,00,54,18.20
2010,08,12,00,55,18.20
2010,08,12,00,56,18.10
2010,08,12,00,57,18.10
2010,08,12,00,58,18.10
2010,08,12,00,59,18.10
2010,08,12,01,00,18.10
2010,08,12,01,01,18.10
2010,08,12,01,02,18.10
2010,08,12,01,03,18.10
2010,08,12,01,04,18.10
2010,08,12,01,05,18.10
2010,08,12,01,06,18.10
2010,08,12,01,07,18.10
2010,08,12,01,08,18.10
2010,08,12,01,09,18.00
2010,08,12,01,10,18.00
2010,08,12,01,11,18.00
2010,08,12,01,12,18.00
2010,08,12,01,13,18.00
2010,08,12,01,14,18.00
2010,08,12,01,15,18.00
2010,08,12,01,16,18.00
2010,08,12,01,17,17.90
2010,08,12,01,18,17.90
2010,08,12,01,19,17.90
2010,08,12,01,20,17.90
2010,08,12,01,21,17.90
2010,08,12,01,22,17.90
2010,08,12,01,23,17.90
2010,08,12,01,24,17.90
2010,08,12,01,25,17.80
2010,08,12,01,26,17.80
2010,08,12,01,27,17.80
2010,08,12,01,28,17.80
2010,08,12,01,29,17.80
2010,08,12,01,30,17.80
2010,08,12,01,31,17.80
2010,08,12,01,32,17.80
2010,08,12,01,33,17.80
2010,08,12,01,34,17.70
2010,08,12,01,35,17.70
2010,08,12,01,36,17.70
2010,08,12,01,37,17.70
2010,08,12,01,38,17.70
2010,08,12,01,39,17.70
2010,08,12,01,40,17.70
2010,08,12,01,41,17.70
2010,08,12,01,42,17.70
2010,08,12,01,43,17.70
2010,08,12,01,44,17.70
2010,08,12,01,45,17.60
2010,08,12,01,46,17.60
2010,08,12,01,47,17.60
2010,08,12,01,48,17.60
2010,08,12,01,49,17.60
2010,08,12,01,50,17.60
2010,08,12,01,51,17.60
2010,08,12,01,52,17.50
2010,08,12,01,53,17.50
2010,08,12,01,54,17.50
2010,08,12,01,55,17.50
2010,08,12,01,56,17.50
2010,08,12,01,57,17.50
2010,08,12,01,58,17.40
2010,08,12,01,59,17.40
2010,08,12,02,00,17.40
2010,08,12,02,01,17.40
2010,08,12,02,02,17.40
2010,08,12,02,03,17.40
2010,08,12,02,04,17.40
2010,08,12,02,05,17.30
2010,08,12,02,06,17.30
2010,08,12,02,07,17.30
2010,08,12,02,08,17.30
2010,08,12,02,09,17.30
2010,08,12,02,10,17.30
2010,08,12,02,11,17.30
2010,08,12,02,12,17.30
2010,08,12,02,13,17.20
2010,08,12,02,14,17.20
2010,08,12,02,15,17.20
2010,08,12,02,16,17.20
2010,08,12,02,17,17.20
2010,08,12,02,18,17.20
2010,08,12,02,19,17.20
2010,08,12,02,20,17.20
2010,08,12,02,21,17.20
2010,08,12,02,22,17.20
2010,08,12,02,23,17.20
2010,08,12,02,24,17.20
2010,08,12,02,25,17.20
2010,08,12,02,26,17.20
2010,08,12,02,27,17.20
2010,08,12,02,28,17.20
2010,08,12,02,29,17.10
2010,08,12,02,30,17.10
2010,08,12,02,31,17.10
2010,08,12,02,32,17.10
2010,08,12,02,33,17.10
2010,08,12,02,34,17.10
2010,08,12,02,35,17.10
2010,08,12,02,36,17.10
2010,08,12,02,37,17.10
2010,08,12,02,38,17.00
2010,08,12,02,39,17.00
2010,08,12,02,40,17.00
2010,08,12,02,41,17.00
2010,08,12,02,42,17.00
2010,08,12,02,43,17.00
2010,08,12,02,44,17.00
2010,08,12,02,45,17.00
2010,08,12,02,46,17.00
2010,08,12,02,47,17.10
2010,08,12,02,48,17.10
2010,08,12,02,49,17.00
2010,08,12,02,50,17.00
2010,08,12,02,51,17.00
2010,08,12,02,52,17.00
2010,08,12,02,53,17.00
2010,08,12,02,54,17.00
2010,08,12,02,55,17.00
2010,08,12,02,56,17.00
2010,08,12,02,57,16.90
2010,08,12,02,58,16.90
2010,08,12,02,59,16.90
2010,08,12,03,00,16.90
2010,08,12,03,01,16.90
2010,08,12,03,02,16.90
2010,08,12,03,03,16.90
2010,08,12,03,04,16.90
2010,08,12,03,05,16.90
2010,08,12,03,06,16.90
2010,08,12,03,07,16.90
2010,08,12,03,08,16.90
2010,08,12,03,09,16.90
2010,08,12,03,10,16.90
2010,08,12,03,11,16.90
2010,08,12,03,12,16.90
2010,08,12,03,13,16.90
2010,08,12,03,14,16.90
2010,08,12,03,15,16.90
2010,08,12,03,16,16.90
2010,08,12,03,17,16.90
2010,08,12,03,18,16.90
2010,08,12,03,19,16.80
2010,08,12,03,20,16.80
2010,08,12,03,21,16.80
2010,08,12,03,22,16.80
2010,08,12,03,23,16.80
2010,08,12,03,24,16.80
2010,08,12,03,25,16.80
2010,08,12,03,26,16.80
2010,08,12,03,27,16.80
2010,08,12,03,28,16.80
2010,08,12,03,29,16.80
2010,08,12,03,30,16.70
2010,08,12,03,31,16.70
2010,08,12,03,32,16.70
2010,08,12,03,33,16.70
2010,08,12,03,34,16.70
2010,08,12,03,35,16.70
2010,08,12,03,36,16.70
2010,08,12,03,37,16.70
2010,08,12,03,38,16.70
2010,08,12,03,39,16.70
2010,08,12,03,40,16.70
2010,08,12,03,41,16.70
2010,08,12,03,42,16.70
2010,08,12,03,43,16.70
2010,08,12,03,44,16.60
2010,08,12,03,45,16.60
2010,08,12,03,46,16.60
2010,08,12,03,47,16.60
2010,08,12,03,48,16.60
2010,08,12,03,49,16.60
2010,08,12,03,50,16.60
2010,08,12,03,51,16.60
2010,08,12,03,52,16.60
2010,08,12,03,53,16.60
2010,08,12,03,54,16.60
2010,08,12,03,55,16.60
2010,08,12,03,56,16.60
2010,08,12,03,57,16.60
2010,08,12,03,58,16.60
2010,08,12,03,59,16.60
2010,08,12,04,00,16.60
2010,08,12,04,01,16.60
2010,08,12,04,02,16.50
2010,08,12,04,03,16.50
2010,08,12,04,04,16.50
2010,08,12,04,05,16.50
2010,08,12,04,06,16.50
2010,08,12,04,07,16.40
2010,08,12,04,08,16.40
2010,08,12,04,09,16.40
2010,08,12,04,10,16.40
2010,08,12,04,11,16.40
2010,08,12,04,12,16.40
2010,08,12,04,13,16.40
2010,08,12,04,14,16.40
2010,08,12,04,15,16.40
2010,08,12,04,16,16.40
2010,08,12,04,17,16.40
2010,08,12,04,18,16.40
2010,08,12,04,19,16.40
2010,08,12,04,20,16.40
2010,08,12,04,21,16.30
2010,08,12,04,22,16.30
2010,08,12,04,23,16.30
2010,08,12,04,24,16.30
2010,08,12,04,25,16.30
2010,08,12,04,26,16.40
2010,08,12,04,27,16.40
2010,08,12,04,28,16.40
2010,08,12,04,29,16.40
2010,08,12,04,30,16.40
2010,08,12,04,31,16.40
2010,08,12,04,32,16.40
2010,08,12,04,33,16.40
2010,08,12,04,34,16.40
2010,08,12,04,35,16.50
2010,08,12,04,36,16.50
2010,08,12,04,37,16.50
2010,08,12,04,38,16.50
2010,08,12,04,39,16.60
2010,08,12,04,40,16.60
2010,08,12,04,41,16.60
2010,08,12,04,42,16.60
2010,08,12,04,43,16.60
2010,08,12,04,44,16.60
2010,08,12,04,45,16.60
2010,08,12,04,46,16.60
2010,08,12,04,47,16.60
2010,08,12,04,48,16.60
2010,08,12,04,49,16.60
2010,08,12,04,50,16.60
2010,08,12,04,51,16.60
2010,08,12,04,52,16.60
2010,08,12,04,53,16.60
2010,08,12,04,54,16.60
2010,08,12,04,55,16.60
2010,08,12,04,56,16.60
2010,08,12,04,57,16.60
2010,08,12,04,58,16.70
2010,08,12,04,59,16.70
2010,08,12,05,00,16.70
2010,08,12,05,01,16.70
2010,08,12,05,02,16.70
2010,08,12,05,03,16.70
2010,08,12,05,04,16.80
2010,08,12,05,05,16.80
2010,08,12,05,06,16.80
2010,08,12,05,07,16.80
2010,08,12,05,08,16.80
2010,08,12,05,09,16.80
2010,08,12,05,10,16.80
2010,08,12,05,11,16.80
2010,08,12,05,12,16.80
2010,08,12,05,13,16.80
2010,08,12,05,14,16.80
2010,08,12,05,15,16.80
2010,08,12,05,16,16.80
2010,08,12,05,17,16.80
2010,08,12,05,18,16.80
2010,08,12,05,19,16.80
2010,08,12,05,20,16.70
2010,08,12,05,21,16.70
2010,08,12,05,22,16.70
2010,08,12,05,23,16.70
2010,08,12,05,24,16.70
2010,08,12,05,25,16.70
2010,08,12,05,26,16.70
2010,08,12,05,27,16.70
2010,08,12,05,28,16.70
2010,08,12,05,29,16.70
2010,08,12,05,30,16.70
2010,08,12,05,31,16.70
2010,08,12,05,32,16.70
2010,08,12,05,33,16.70
2010,08,12,05,34,16.60
2010,08,12,05,35,16.60
2010,08,12,05,36,16.60
2010,08,12,05,37,16.60
2010,08,12,05,38,16.60
2010,08,12,05,39,16.60
2010,08,12,05,40,16.60
2010,08,12,05,41,16.60
2010,08,12,05,42,16.60
2010,08,12,05,43,16.60
2010,08,12,05,44,16.60
2010,08,12,05,45,16.60
2010,08,12,05,46,16.60
2010,08,12,05,47,16.60
2010,08,12,05,48,16.60
2010,08,12,05,49,16.60
2010,08,12,05,50,16.60
2010,08,12,05,51,16.60
2010,08,12,05,52,16.60
2010,08,12,05,53,16.60
2010,08,12,05,54,16.60
2010,08,12,05,55,16.60
2010,08,12,05,56,16.60
2010,08,12,05,57,16.60
2010,08,12,05,58,16.60
2010,08,12,05,59,16.60
2010,08,12,06,00,16.60
2010,08,12,06,01,16.60
2010,08,12,06,02,16.60
2010,08,12,06,03,16.60
2010,08,12,06,04,16.60
2010,08,12,06,05,16.70
2010,08,12,06,06,16.70
2010,08,12,06,07,16.70
2010,08,12,06,08,16.70
2010,08,12,06,09,16.70
2010,08,12,06,10,16.70
2010,08,12,06,11,16.70
2010,08,12,06,12,16.70
2010,08,12,06,13,16.70
2010,08,12,06,14,16.70
2010,08,12,06,15,16.70
2010,08,12,06,16,16.70
2010,08,12,06,17,16.70
2010,08,12,06,18,16.70
2010,08,12,06,19,16.70
2010,08,12,06,20,16.70
2010,08,12,06,21,16.70
2010,08,12,06,22,16.70
2010,08,12,06,23,16.70
2010,08,12,06,24,16.70
2010,08,12,06,25,16.70
2010,08,12,06,26,16.70
2010,08,12,06,27,16.70
2010,08,12,06,28,16.70
2010,08,12,06,29,16.70
2010,08,12,06,30,16.70
2010,08,12,06,31,16.70
2010,08,12,06,32,16.70
2010,08,12,06,33,16.70
2010,08,12,06,34,16.70
2010,08,12,06,35,16.70
2010,08,12,06,36,16.70
2010,08,12,06,37,16.70
2010,08,12,06,38,16.70
2010,08,12,06,39,16.80
2010,08,12,06,40,16.80
2010,08,12,06,41,16.80
2010,08,12,06,42,16.90
2010,08,12,06,43,16.90
2010,08,12,06,44,16.90
2010,08,12,06,45,16.90
2010,08,12,06,46,17.00
2010,08,12,06,47,17.00
2010,08,12,06,48,17.00
2010,08,12,06,49,17.10
2010,08,12,06,50,17.10
2010,08,12,06,51,17.10
2010,08,12,06,52,17.10
2010,08,12,06,53,17.10
2010,08,12,06,54,17.20
2010,08,12,06,55,17.20
2010,08,12,06,56,17.20
2010,08,12,06,57,17.20
2010,08,12,06,58,17.30
2010,08,12,06,59,17.30
2010,08,12,07,00,17.30
2010,08,12,07,01,17.30
2010,08,12,07,02,17.30
2010,08,12,07,03,17.30
2010,08,12,07,04,17.30
2010,08,12,07,05,17.30
2010,08,12,07,06,17.30
2010,08,12,07,07,17.30
2010,08,12,07,08,17.30
2010,08,12,07,09,17.30
2010,08,12,07,10,17.30
2010,08,12,07,11,17.30
2010,08,12,07,12,17.30
2010,08,12,07,13,17.40
2010,08,12,07,14,17.40
2010,08,12,07,15,17.40
2010,08,12,07,16,17.40
2010,08,12,07,17,17.40
2010,08,12,07,18,17.40
2010,08,12,07,19,17.40
2010,08,12,07,20,17.40
2010,08,12,07,21,17.40
2010,08,12,07,22,17.40
2010,08,12,07,23,17.50
2010,08,12,07,24,17.50
2010,08,12,07,25,17.50
2010,08,12,07,26,17.50
2010,08,12,07,27,17.60
2010,08,12,07,28,17.60
2010,08,12,07,29,17.60
2010,08,12,07,30,17.60
2010,08,12,07,31,17.60
2010,08,12,07,32,17.70
2010,08,12,07,33,17.70
2010,08,12,07,34,17.70
2010,08,12,07,35,17.70
2010,08,12,07,36,17.70
2010,08,12,07,37,17.70
2010,08,12,07,38,17.80
2010,08,12,07,39,17.80
2010,08,12,07,40,17.80
2010,08,12,07,41,17.80
2010,08,12,07,42,17.80
2010,08,12,07,43,17.80
2010,08,12,07,44,17.80
2010,08,12,07,45,17.80
2010,08,12,07,46,17.90
2010,08,12,07,47,17.90
2010,08,12,07,48,17.90
2010,08,12,07,49,17.90
2010,08,12,07,50,17.90
2010,08,12,07,51,17.90
2010,08,12,07,52,18.00
2010,08,12,07,53,18.00
2010,08,12,07,54,18.00
2010,08,12,07,55,18.00
2010,08,12,07,56,18.00
2010,08,12,07,57,18.00
2010,08,12,07,58,18.10
2010,08,12,07,59,18.10
2010,08,12,08,00,18.10
2010,08,12,08,01,18.10
2010,08,12,08,02,18.20
2010,08,12,08,03,18.20
2010,08,12,08,04,18.20
2010,08,12,08,05,18.30
2010,08,12,08,06,18.30
2010,08,12,08,07,18.30
2010,08,12,08,08,18.30
2010,08,12,08,09,18.30
2010,08,12,08,10,18.30
2010,08,12,08,11,18.30
2010,08,12,08,12,18.30
2010,08,12,08,13,18.30
2010,08,12,08,14,18.30
2010,08,12,08,15,18.40
2010,08,12,08,16,18.40
2010,08,12,08,17,18.40
2010,08,12,08,18,18.40
2010,08,12,08,19,18.40
2010,08,12,08,20,18.40
2010,08,12,08,21,18.40
2010,08,12,08,22,18.40
2010,08,12,08,23,18.50
2010,08,12,08,24,18.50
2010,08,12,08,25,18.60
2010,08,12,08,26,18.60
2010,08,12,08,27,18.60
2010,08,12,08,28,18.70
2010,08,12,08,29,18.70
2010,08,12,08,30,18.70
2010,08,12,08,31,18.80
2010,08,12,08,32,18.80
2010,08,12,08,33,18.80
2010,08,12,08,34,18.80
2010,08,12,08,35,18.80
2010,08,12,08,36,18.80
2010,08,12,08,37,18.80
2010,08,12,08,38,18.80
2010,08,12,08,39,18.80
2010,08,12,08,40,18.80
2010,08,12,08,41,18.80
2010,08,12,08,42,18.90
2010,08,12,08,43,18.90
2010,08,12,08,44,18.90
2010,08,12,08,45,19.00
2010,08,12,08,46,19.00
2010,08,12,08,47,19.00
2010,08,12,08,48,19.00
2010,08,12,08,49,19.00
2010,08,12,08,50,19.00
2010,08,12,08,51,19.00
2010,08,12,08,52,19.00
2010,08,12,08,53,19.10
2010,08,12,08,54,19.10
2010,08,12,08,55,19.10
2010,08,12,08,56,19.20
2010,08,12,08,57,19.20
2010,08,12,08,58,19.20
2010,08,12,08,59,19.20
2010,08,12,09,00,19.20
2010,08,12,09,01,19.20
2010,08,12,09,02,19.30
2010,08,12,09,03,19.30
2010,08,12,09,04,19.30
2010,08,12,09,05,19.30
2010,08,12,09,06,19.30
2010,08,12,09,07,19.30
2010,08,12,09,08,19.30
2010,08,12,09,09,19.30
2010,08,12,09,10,19.30
2010,08,12,09,11,19.30
2010,08,12,09,12,19.30
2010,08,12,09,13,19.30
2010,08,12,09,14,19.30
2010,08,12,09,15,19.30
2010,08,12,09,16,19.30
2010,08,12,09,17,19.30
2010,08,12,09,18,19.30
2010,08,12,09,19,19.20
2010,08,12,09,20,19.20
2010,08,12,09,21,19.20
2010,08,12,09,22,19.20
2010,08,12,09,23,19.20
2010,08,12,09,24,19.20
2010,08,12,09,25,19.20
2010,08,12,09,26,19.20
2010,08,12,09,27,19.20
2010,08,12,09,28,19.20
2010,08,12,09,29,19.20
2010,08,12,09,30,19.20
2010,08,12,09,31,19.20
2010,08,12,09,32,19.20
2010,08,12,09,33,19.30
2010,08,12,09,34,19.30
2010,08,12,09,35,19.30
2010,08,12,09,36,19.30
2010,08,12,09,37,19.30
2010,08,12,09,38,19.30
2010,08,12,09,39,19.30
2010,08,12,09,40,19.30
2010,08,12,09,41,19.30
2010,08,12,09,42,19.30
2010,08,12,09,43,19.30
2010,08,12,09,44,19.30
2010,08,12,09,45,19.40
2010,08,12,09,46,19.40
2010,08,12,09,47,19.40
2010,08,12,09,48,19.40
2010,08,12,09,49,19.30
2010,08,12,09,50,19.30
2010,08,12,09,51,19.30
2010,08,12,09,52,19.30
2010,08,12,09,53,19.30
2010,08,12,09,54,19.30
2010,08,12,09,55,19.30
2010,08,12,09,56,19.30
2010,08,12,09,57,19.30
2010,08,12,09,58,19.30
2010,08,12,09,59,19.30
2010,08,12,10,00,19.30
2010,08,12,10,01,19.40
2010,08,12,10,02,19.50
2010,08,12,10,03,19.50
2010,08,12,10,04,19.60
2010,08,12,10,05,19.60
2010,08,12,10,06,19.70
2010,08,12,10,07,19.60
2010,08,12,10,08,19.60
2010,08,12,10,09,19.60
2010,08,12,10,10,19.60
2010,08,12,10,11,19.70
2010,08,12,10,12,19.70
2010,08,12,10,13,19.80
2010,08,12,10,14,19.90
2010,08,12,10,15,19.90
2010,08,12,10,16,19.90
2010,08,12,10,17,20.00
2010,08,12,10,18,20.00
2010,08,12,10,19,20.00
2010,08,12,10,20,20.00
2010,08,12,10,21,20.00
2010,08,12,10,22,20.10
2010,08,12,10,23,20.10
2010,08,12,10,24,20.10
2010,08,12,10,25,20.10
2010,08,12,10,26,20.20
2010,08,12,10,27,20.20
2010,08,12,10,28,20.10
2010,08,12,10,29,20.10
2010,08,12,10,30,20.10
2010,08,12,10,31,20.10
2010,08,12,10,32,20.00
2010,08,12,10,33,20.00
2010,08,12,10,34,20.00
2010,08,12,10,35,20.00
2010,08,12,10,36,20.00
2010,08,12,10,37,20.00
2010,08,12,10,38,20.00
2010,08,12,10,39,20.00
2010,08,12,10,40,20.00
2010,08,12,10,41,19.90
2010,08,12,10,42,19.90
2010,08,12,10,43,19.80
2010,08,12,10,44,19.80
2010,08,12,10,45,19.80
2010,08,12,10,46,19.80
2010,08,12,10,47,19.80
2010,08,12,10,48,19.80
2010,08,12,10,49,19.90
2010,08,12,10,50,19.90
2010,08,12,10,51,19.90
2010,08,12,10,52,19.90
2010,08,12,10,53,19.90
2010,08,12,10,54,19.90
2010,08,12,10,55,19.90
2010,08,12,10,56,19.90
2010,08,12,10,57,19.90
2010,08,12,10,58,19.80
2010,08,12,10,59,19.80
2010,08,12,11,00,19.80
2010,08,12,11,01,19.80
2010,08,12,11,02,19.80
2010,08,12,11,03,19.80
2010,08,12,11,04,19.80
2010,08,12,11,05,19.80
2010,08,12,11,06,19.80
2010,08,12,11,07,19.80
2010,08,12,11,08,19.80
2010,08,12,11,09,19.90
2010,08,12,11,10,19.90
2010,08,12,11,11,19.80
2010,08,12,11,12,19.80
2010,08,12,11,13,19.80
2010,08,12,11,14,19.80
2010,08,12,11,15,19.80
2010,08,12,11,16,19.70
2010,08,12,11,17,19.60
2010,08,12,11,18,19.60
2010,08,12,11,19,19.60
2010,08,12,11,20,19.60
2010,08,12,11,21,19.60
2010,08,12,11,22,19.60
2010,08,12,11,23,19.60
2010,08,12,11,24,19.60
2010,08,12,11,25,19.60
2010,08,12,11,26,19.70
2010,08,12,11,27,19.70
2010,08,12,11,28,19.70
2010,08,12,11,29,19.70
2010,08,12,11,30,19.70
2010,08,12,11,31,19.70
2010,08,12,11,32,19.70
2010,08,12,11,33,19.70
2010,08,12,11,34,19.70
2010,08,12,11,35,19.70
2010,08,12,11,36,19.70
2010,08,12,11,37,19.80
2010,08,12,11,38,19.70
2010,08,12,11,39,19.70
2010,08,12,11,40,19.70
2010,08,12,11,41,19.70
2010,08,12,11,42,19.70
2010,08,12,11,43,19.80
2010,08,12,11,44,19.80
2010,08,12,11,45,19.80
2010,08,12,11,46,19.80
2010,08,12,11,47,19.70
2010,08,12,11,48,19.70
2010,08,12,11,49,19.70
2010,08,12,11,50,19.70
2010,08,12,11,51,19.70
2010,08,12,11,52,19.70
2010,08,12,11,53,19.70
2010,08,12,11,54,19.70
2010,08,12,11,55,19.70
2010,08,12,11,56,19.80
2010,08,12,11,57,19.80
2010,08,12,11,58,19.70
2010,08,12,11,59,19.70
2010,08,12,12,00,19.70
2010,08,12,12,01,19.70
2010,08,12,12,02,19.80
2010,08,12,12,03,19.80
2010,08,12,12,04,19.80
2010,08,12,12,05,19.80
2010,08,12,12,06,19.70
2010,08,12,12,07,19.70
2010,08,12,12,08,19.70
2010,08,12,12,09,19.70
2010,08,12,12,10,19.70
2010,08,12,12,11,19.70
2010,08,12,12,12,19.70
2010,08,12,12,13,19.80
2010,08,12,12,14,19.80
2010,08,12,12,15,19.80
2010,08,12,12,16,19.80
2010,08,12,12,17,19.80
2010,08,12,12,18,19.70
2010,08,12,12,19,19.70
2010,08,12,12,20,19.70
2010,08,12,12,21,19.70
2010,08,12,12,22,19.70
2010,08,12,12,23,19.70
2010,08,12,12,24,19.70
2010,08,12,12,25,19.70
2010,08,12,12,26,19.70
2010,08,12,12,27,19.70
2010,08,12,12,28,19.70
2010,08,12,12,29,19.70
2010,08,12,12,30,19.80
2010,08,12,12,31,19.80
2010,08,12,12,32,19.80
2010,08,12,12,33,19.80
2010,08,12,12,34,19.90
2010,08,12,12,35,19.90
2010,08,12,12,36,19.90
2010,08,12,12,37,19.90
2010,08,12,12,38,19.90
2010,08,12,12,39,20.00
2010,08,12,12,40,20.10
2010,08,12,12,41,20.10
2010,08,12,12,42,20.20
2010,08,12,12,43,20.20
2010,08,12,12,44,20.30
2010,08,12,12,45,20.30
2010,08,12,12,46,20.30
2010,08,12,12,47,20.30
2010,08,12,12,48,20.30
2010,08,12,12,49,20.40
2010,08,12,12,50,20.40
2010,08,12,12,51,20.40
2010,08,12,12,52,20.40
2010,08,12,12,53,20.40
2010,08,12,12,54,20.40
2010,08,12,12,55,20.50
2010,08,12,12,56,20.50
2010,08,12,12,57,20.50
2010,08,12,12,58,20.50
2010,08,12,12,59,20.60
2010,08,12,13,00,20.60
2010,08,12,13,01,20.60
2010,08,12,13,02,20.60
2010,08,12,13,03,20.60
2010,08,12,13,04,20.70
2010,08,12,13,05,20.80
2010,08,12,13,06,20.80
2010,08,12,13,07,20.80
2010,08,12,13,08,20.90
2010,08,12,13,09,20.90
2010,08,12,13,10,21.00
2010,08,12,13,11,21.00
2010,08,12,13,12,21.00
2010,08,12,13,13,21.00
2010,08,12,13,14,21.00
2010,08,12,13,15,20.90
2010,08,12,13,16,20.90
2010,08,12,13,17,20.90
2010,08,12,13,18,21.00
2010,08,12,13,19,21.00
2010,08,12,13,20,21.00
2010,08,12,13,21,21.10
2010,08,12,13,22,21.10
2010,08,12,13,23,21.20
2010,08,12,13,24,21.20
2010,08,12,13,25,21.20
2010,08,12,13,26,21.20
2010,08,12,13,27,21.20
2010,08,12,13,28,21.30
2010,08,12,13,29,21.30
2010,08,12,13,30,21.40
2010,08,12,13,31,21.40
2010,08,12,13,32,21.40
2010,08,12,13,33,21.30
2010,08,12,13,34,21.30
2010,08,12,13,35,21.30
2010,08,12,13,36,21.40
2010,08,12,13,37,21.40
2010,08,12,13,38,21.50
2010,08,12,13,39,21.60
2010,08,12,13,40,21.60
2010,08,12,13,41,21.60
2010,08,12,13,42,21.60
2010,08,12,13,43,21.60
2010,08,12,13,44,21.70
2010,08,12,13,45,21.70
2010,08,12,13,46,21.70
2010,08,12,13,47,21.70
2010,08,12,13,48,21.80
2010,08,12,13,49,21.80
2010,08,12,13,50,21.80
2010,08,12,13,51,21.80
2010,08,12,13,52,21.70
2010,08,12,13,53,21.60
2010,08,12,13,54,21.60
2010,08,12,13,55,21.50
2010,08,12,13,56,21.40
2010,08,12,13,57,21.40
2010,08,12,13,58,21.40
2010,08,12,13,59,21.40
2010,08,12,14,00,21.40
2010,08,12,14,01,21.40
2010,08,12,14,02,21.50
2010,08,12,14,03,21.50
2010,08,12,14,04,21.50
2010,08,12,14,05,21.40
2010,08,12,14,06,21.40
2010,08,12,14,07,21.40
2010,08,12,14,08,21.40
2010,08,12,14,09,21.40
2010,08,12,14,10,21.40
2010,08,12,14,11,21.40
2010,08,12,14,12,21.50
2010,08,12,14,13,21.40
2010,08,12,14,14,21.40
2010,08,12,14,15,21.40
2010,08,12,14,16,21.40
2010,08,12,14,17,21.50
2010,08,12,14,18,21.50
2010,08,12,14,19,21.50
2010,08,12,14,20,21.50
2010,08,12,14,21,21.60
2010,08,12,14,22,21.60
2010,08,12,14,23,21.60
2010,08,12,14,24,21.70
2010,08,12,14,25,21.70
2010,08,12,14,26,21.70
2010,08,12,14,27,21.80
2010,08,12,14,28,21.80
2010,08,12,14,29,21.90
2010,08,12,14,30,21.90
2010,08,12,14,31,21.90
2010,08,12,14,32,21.90
2010,08,12,14,33,21.90
2010,08,12,14,34,21.90
2010,08,12,14,35,21.90
2010,08,12,14,36,21.90
2010,08,12,14,37,21.90
2010,08,12,14,38,21.90
2010,08,12,14,39,21.90
2010,08,12,14,40,21.90
2010,08,12,14,41,21.90
2010,08,12,14,42,22.00
2010,08,12,14,43,22.00
2010,08,12,14,44,22.00
2010,08,12,14,45,21.90
2010,08,12,14,46,21.80
2010,08,12,14,47,21.80
2010,08,12,14,48,21.70
2010,08,12,14,49,21.70
2010,08,12,14,50,21.70
2010,08,12,14,51,21.60
2010,08,12,14,52,21.60
2010,08,12,14,53,21.50
2010,08,12,14,54,21.40
2010,08,12,14,55,21.40
2010,08,12,14,56,21.40
2010,08,12,14,57,21.40
2010,08,12,14,58,21.40
2010,08,12,14,59,21.30
2010,08,12,15,00,21.30
2010,08,12,15,01,21.30
2010,08,12,15,02,21.30
2010,08,12,15,03,21.30
2010,08,12,15,04,21.30
2010,08,12,15,05,21.20
2010,08,12,15,06,21.30
2010,08,12,15,07,21.30
2010,08,12,15,08,21.30
2010,08,12,15,09,21.40
2010,08,12,15,10,21.40
2010,08,12,15,11,21.40
2010,08,12,15,12,21.30
2010,08,12,15,13,21.40
2010,08,12,15,14,21.40
2010,08,12,15,15,21.40
2010,08,12,15,16,21.50
2010,08,12,15,17,21.60
2010,08,12,15,18,21.60
2010,08,12,15,19,21.70
2010,08,12,15,20,21.80
2010,08,12,15,21,21.80
2010,08,12,15,22,21.90
2010,08,12,15,23,21.90
2010,08,12,15,24,22.00
2010,08,12,15,25,22.00
2010,08,12,15,26,22.00
2010,08,12,15,27,22.00
2010,08,12,15,28,21.90
2010,08,12,15,29,21.80
2010,08,12,15,30,21.70
2010,08,12,15,31,21.60
2010,08,12,15,32,21.60
2010,08,12,15,33,21.50
2010,08,12,15,34,21.40
2010,08,12,15,35,21.40
2010,08,12,15,36,21.30
2010,08,12,15,37,21.40
2010,08,12,15,38,21.40
2010,08,12,15,39,21.40
2010,08,12,15,40,21.40
2010,08,12,15,41,21.50
2010,08,12,15,42,21.50
2010,08,12,15,43,21.50
2010,08,12,15,44,21.40
2010,08,12,15,45,21.40
2010,08,12,15,46,21.40
2010,08,12,15,47,21.40
2010,08,12,15,48,21.40
2010,08,12,15,49,21.40
2010,08,12,15,50,21.40
2010,08,12,15,51,21.40
2010,08,12,15,52,21.50
2010,08,12,15,53,21.50
2010,08,12,15,54,21.40
2010,08,12,15,55,21.40
2010,08,12,15,56,21.40
2010,08,12,15,57,21.40
2010,08,12,15,58,21.50
2010,08,12,15,59,21.50
2010,08,12,16,00,21.50
2010,08,12,16,01,21.60
2010,08,12,16,02,21.60
2010,08,12,16,03,21.60
2010,08,12,16,04,21.60
2010,08,12,16,05,21.70
2010,08,12,16,06,21.70
2010,08,12,16,07,21.70
2010,08,12,16,08,21.70
2010,08,12,16,09,21.80
2010,08,12,16,10,21.80
2010,08,12,16,11,21.90
2010,08,12,16,12,21.90
2010,08,12,16,13,21.90
2010,08,12,16,14,22.00
2010,08,12,16,15,22.00
2010,08,12,16,16,22.00
2010,08,12,16,17,22.00
2010,08,12,16,18,22.00
2010,08,12,16,19,21.90
2010,08,12,16,20,21.90
2010,08,12,16,21,21.90
2010,08,12,16,22,22.00
2010,08,12,16,23,22.00
2010,08,12,16,24,22.10
2010,08,12,16,25,22.10
2010,08,12,16,26,22.20
2010,08,12,16,27,22.20
2010,08,12,16,28,22.20
2010,08,12,16,29,22.20
2010,08,12,16,30,22.30
2010,08,12,16,31,22.30
2010,08,12,16,32,22.30
2010,08,12,16,33,22.20
2010,08,12,16,34,22.20
2010,08,12,16,35,22.20
2010,08,12,16,36,22.20
2010,08,12,16,37,22.20
2010,08,12,16,38,22.30
2010,08,12,16,39,22.30
2010,08,12,16,40,22.30
2010,08,12,16,41,22.30
2010,08,12,16,42,22.30
2010,08,12,16,43,22.30
2010,08,12,16,44,22.30
2010,08,12,16,45,22.30
2010,08,12,16,46,22.40
2010,08,12,16,47,22.40
2010,08,12,16,48,22.40
2010,08,12,16,49,22.40
2010,08,12,16,50,22.40
2010,08,12,16,51,22.40
2010,08,12,16,52,22.40
2010,08,12,16,53,22.40
2010,08,12,16,54,22.40
2010,08,12,16,55,22.40
2010,08,12,16,56,22.40
2010,08,12,16,57,22.50
2010,08,12,16,58,22.50
2010,08,12,16,59,22.50
2010,08,12,17,00,22.40
2010,08,12,17,01,22.40
2010,08,12,17,02,22.40
2010,08,12,17,03,22.40
2010,08,12,17,04,22.40
2010,08,12,17,05,22.40
2010,08,12,17,06,22.40
2010,08,12,17,07,22.50
2010,08,12,17,08,22.50
2010,08,12,17,09,22.50
2010,08,12,17,10,22.40
2010,08,12,17,11,22.40
2010,08,12,17,12,22.40
2010,08,12,17,13,22.40
2010,08,12,17,14,22.40
2010,08,12,17,15,22.40
2010,08,12,17,16,22.40
2010,08,12,17,17,22.40
2010,08,12,17,18,22.40
2010,08,12,17,19,22.40